Stations météo

Publicité
Angers, France (7230): Température de l'air & dewpoint: 17.05.2018 22:00:00 - 23.05.2018 22:00:00 (CEST)Angers, France (7230): Température de l'air 5cm: 17.05.2018 22:00:00 - 23.05.2018 22:00:00 (CEST)Angers, France (7230): Température de l'air -20cm: 17.05.2018 22:00:00 - 23.05.2018 22:00:00 (CEST)Angers, France (7230): Vitesse du vent & gusts: 17.05.2018 22:00:00 - 23.05.2018 22:00:00 (CEST)Angers, France (7230): Direction du vent: 17.05.2018 22:00:00 - 23.05.2018 22:00:00 (CEST)Angers, France (7230): reduced air pressure: 17.05.2018 22:00:00 - 23.05.2018 22:00:00 (CEST)Angers, France (7230): visibility: 17.05.2018 22:00:00 - 23.05.2018 22:00:00 (CEST)Angers, France (7230): Ensoleillement: 17.05.2018 22:00:00 - 23.05.2018 22:00:00 (CEST)Angers, France (7230): Quantités de précipitations: 17.05.2018 22:00:00 - 23.05.2018 22:00:00 (CEST)
Date & Time tt [°C] td [°C] tt 5cm [°C] tt -20cm [°C] ff [km/h] ff [knt] fx [km/h] fx [knt] dd ppp [hPa] vv [km] sd [min] rr [mm]
23.05.2018 22:00:00 16,4 12,9 14,2 18,8 5 3 13 7 NE 1018,0 20 15 0,0
23.05.2018 21:00:00 18,1 14,8 18,0 18,9 8 5 15 8 NE 1017,4 19 39 0,0
23.05.2018 20:00:00 17,3 15,8 16,9 18,9 4 2 6 4 NW 1016,7 9 0 0,2
23.05.2018 19:00:00 16,7 14,5 15,7 19,0 0 0 15 8 N 1017,0 15 0 0,6
23.05.2018 18:00:00 16,8 14,6 15,0 19,1 9 5 20 11 W 1017,6 16 0 1,6
23.05.2018 17:00:00 17,6 12,9 15,1 18,9 20 11 34 18 NNE 1017,3 14 1 1,0
23.05.2018 16:00:00 22,3 12,8 24,1 18,7 13 7 23 12 NE 1017,2 20 15 0,0
23.05.2018 15:00:00 22,4 12,9 26,1 18,3 12 6 24 13 NE 1017,7 20 31 0,0
23.05.2018 14:00:00 22,7 14,0 27,2 17,9 8 4 23 13 ENE 1018,1 19 52 0,0
23.05.2018 13:00:00 21,4 14,3 28,7 17,6 9 5 21 11 N 1018,6 18 60 0,0
23.05.2018 12:00:00 20,0 13,2 26,9 17,4 10 5 18 10 NNE 1018,8 17 60 0,0
23.05.2018 11:00:00 19,0 12,5 24,4 17,3 6 3 16 8 E 1018,8 16 60 0,0
23.05.2018 10:00:00 16,9 11,8 20,1 17,3 9 5 17 9 NNE 1018,8 16 60 0,0
23.05.2018 09:00:00 15,4 11,4 15,2 17,4 10 5 19 11 NE 1018,7 15 58 0,0
23.05.2018 08:00:00 13,4 10,9 9,0 17,5 3 2 8 5 NNE 1018,5 13 57 0,0
23.05.2018 07:00:00 11,0 9,9 8,5 17,7 2 1 8 4 NNW 1017,9 9 14 0,0
23.05.2018 06:00:00 11,5 10,1 8,3 17,9 5 3 9 5 N 1017,6 13 0 0,0
23.05.2018 05:00:00 11,9 10,5 9,3 18,0 5 3 10 5 NNW 1017,6 14 0 0,0
23.05.2018 04:00:00 12,4 10,5 9,7 18,2 6 3 11 6 N 1017,3 20 0 0,0
23.05.2018 03:00:00 13,4 10,6 11,4 18,4 6 3 12 7 N 1017,2 20 0 0,0
23.05.2018 02:00:00 14,2 10,8 11,7 18,6 5 3 11 6 NNW 1017,2 20 0 0,0
23.05.2018 01:00:00 15,4 11,0 13,6 18,8 8 4 14 8 N 1017,1 20 0 0,0
23.05.2018 00:00:00 17,0 11,3 15,1 18,9 7 4 18 10 N 1017,1 20 0 0,0
22.05.2018 23:00:00 18,0 12,0 16,3 19,0 9 5 18 10 N 1016,6 20 0 0,0
22.05.2018 22:00:00 18,1 11,6 16,7 19,1 10 5 22 12 N 1015,9 20 9 0,0
22.05.2018 21:00:00 19,8 11,3 19,1 19,2 14 8 26 14 N 1015,2 20 2 0,0
22.05.2018 20:00:00 20,8 12,2 20,4 19,2 13 7 33 18 NNW 1014,5 20 19 0,0
22.05.2018 19:00:00 23,8 10,1 27,6 19,0 13 7 29 16 N 1014,0 20 58 0,0
22.05.2018 18:00:00 24,4 11,0 24,3 18,9 13 7 26 14 NNW 1013,7 20 53 0,0
22.05.2018 17:00:00 23,1 10,5 24,3 18,7 13 7 28 15 NNW 1014,0 20 20 0,0
22.05.2018 16:00:00 23,5 10,9 24,0 18,4 9 5 24 13 N 1014,1 20 24 0,0
22.05.2018 15:00:00 23,1 12,7 25,2 18,1 9 5 19 10 NNE 1014,1 20 32 0,0
22.05.2018 14:00:00 22,4 12,1 24,7 17,7 10 5 20 11 N 1014,3 20 41 0,0
22.05.2018 13:00:00 22,4 12,3 28,6 17,5 10 6 21 12 N 1014,6 20 60 0,0
22.05.2018 12:00:00 21,1 14,0 27,4 17,2 9 5 16 9 N 1014,6 18 60 0,0
22.05.2018 11:00:00 19,5 13,2 23,1 17,2 8 4 14 8 N 1014,4 14 45 0,0
22.05.2018 10:00:00 18,2 12,6 20,1 17,2 4 2 14 8 NNE 1014,5 12 60 0,0
22.05.2018 09:00:00 15,7 11,9 15,2 17,3 7 4 14 8 NNW 1014,4 11 60 0,0
22.05.2018 08:00:00 13,4 11,6 10,3 17,4 6 4 12 6 NNW 1013,9 8 60 0,0
22.05.2018 07:00:00 12,1 11,3 8,1 17,6 4 2 8 5 NNW 1013,6 7 9 0,0
22.05.2018 06:00:00 12,4 11,5 8,7 17,8 4 2 9 5 NNW 1013,1 8 0 0,0
22.05.2018 05:00:00 13,3 11,9 9,9 17,9 5 3 9 5 NNW 1012,9 12 0 0,0
22.05.2018 04:00:00 14,4 12,3 10,8 18,0 4 2 9 5 NNW 1012,7 20 0 0,0
22.05.2018 03:00:00 16,1 12,8 14,3 18,2 4 2 10 5 NNW 1012,7 20 0 0,0
22.05.2018 02:00:00 16,5 12,8 15,3 18,3 5 3 10 5 NNW 1012,6 20 0 0,0
22.05.2018 01:00:00 17,1 12,6 12,4 18,4 6 4 14 8 N 1012,7 20 0 0,0
22.05.2018 00:00:00 17,0 12,1 12,3 18,6 4 2 9 5 NNW 1012,9 20 0 0,0
21.05.2018 23:00:00 18,9 11,9 15,5 18,8 6 3 24 13 NNE 1012,6 20 0 0,0
21.05.2018 22:00:00 19,0 12,3 15,5 18,9 6 3 11 6 NNW 1011,9 20 0 0,0
21.05.2018 21:00:00 20,6 11,8 19,1 18,9 8 4 19 10 NNE 1011,5 20 28 0,0
21.05.2018 20:00:00 22,9 10,0 24,6 18,8 10 5 16 8 N 1011,2 20 57 0,0
21.05.2018 19:00:00 24,2 9,4 26,7 18,7 10 5 16 9 NNE 1010,9 20 56 0,0
21.05.2018 18:00:00 24,8 9,1 30,6 18,4 10 5 20 11 NW 1010,7 20 60 0,0
21.05.2018 17:00:00 24,2 10,1 24,6 18,2 9 5 22 12 N 1010,9 20 34 0,0
21.05.2018 16:00:00 24,1 9,3 25,5 17,8 7 4 25 13 NNW 1011,4 20 34 0,0
21.05.2018 15:00:00 23,7 10,7 27,3 17,4 10 5 22 12 NE 1011,8 20 47 0,0
21.05.2018 14:00:00 23,3 10,4 27,0 17,0 10 5 26 14 ENE 1012,3 20 50 0,0
21.05.2018 13:00:00 23,0 13,2 29,2 16,6 9 5 17 9 NNE 1012,7 20 60 0,0
21.05.2018 12:00:00 21,7 12,3 26,7 16,4 6 4 16 8 ENE 1013,0 20 60 0,0
21.05.2018 11:00:00 19,7 12,9 24,8 16,3 8 4 14 8 NE 1013,3 20 60 0,0
21.05.2018 10:00:00 17,5 12,4 19,9 16,3 6 3 14 8 NE 1013,6 19 60 0,0
21.05.2018 09:00:00 14,8 11,2 15,4 16,3 10 5 16 9 NE 1013,6 18 60 0,0
21.05.2018 08:00:00 13,0 10,4 9,7 16,4 7 4 11 6 NE 1013,8 14 60 0,0
21.05.2018 07:00:00 11,1 9,4 8,5 16,6 4 2 10 5 NNE 1013,7 13 16 0,0
21.05.2018 06:00:00 11,0 9,4 7,6 16,7 4 2 10 5 NNE 1013,8 14 0 0,0
21.05.2018 05:00:00 11,3 9,6 8,0 16,9 2 1 5 3 N 1014,0 14 0 0,0
21.05.2018 04:00:00 11,9 9,8 7,5 17,1 4 2 8 5 NNE 1014,2 18 0 0,0
21.05.2018 03:00:00 12,3 9,8 7,9 17,3 0 0 8 4 N 1014,6 19 0 0,0
21.05.2018 02:00:00 12,4 9,6 7,9 17,5 4 2 6 4 N 1015,1 20 0 0,0
21.05.2018 01:00:00 13,7 9,3 8,7 17,7 4 2 8 5 N 1015,4 20 0 0,0
21.05.2018 00:00:00 14,0 9,2 9,8 17,9 5 3 7 4 NNE 1015,8 20 0 0,0
20.05.2018 23:00:00 15,1 8,8 9,2 18,1 0 0 7 4 N 1015,9 20 0 0,0
20.05.2018 22:00:00 17,6 9,0 11,4 18,2 4 2 12 6 NE 1015,6 20 12 0,0
20.05.2018 21:00:00 20,6 7,9 19,0 18,2 7 4 18 10 ENE 1015,2 20 60 0,0
20.05.2018 20:00:00 22,0 9,5 24,6 18,2 11 6 24 13 NE 1015,1 20 60 0,0
20.05.2018 19:00:00 22,6 8,7 26,8 18,0 11 6 26 14 NNE 1015,1 20 60 0,0
20.05.2018 18:00:00 22,7 8,4 28,0 17,8 12 6 22 12 NE 1015,7 20 60 0,0
20.05.2018 17:00:00 22,2 8,0 28,7 17,4 9 5 26 14 ENE 1016,3 20 60 0,0
20.05.2018 16:00:00 21,9 8,7 28,6 17,0 12 6 27 15 NE 1017,1 20 60 0,0
20.05.2018 15:00:00 20,9 7,5 26,7 16,6 18 10 26 14 NE 1017,9 20 60 0,0
20.05.2018 14:00:00 20,2 8,8 26,9 16,2 11 6 26 14 NNE 1018,7 20 60 0,0
20.05.2018 13:00:00 18,9 8,2 25,4 15,9 10 6 25 14 NE 1019,5 19 60 0,0
20.05.2018 12:00:00 17,7 9,3 23,8 15,7 14 7 23 12 NNE 1020,0 20 60 0,0
20.05.2018 11:00:00 16,4 9,8 20,7 15,6 11 6 22 12 NNE 1020,4 20 60 0,0
20.05.2018 10:00:00 14,6 9,8 18,1 15,6 9 5 16 9 NE 1020,7 18 60 0,0
20.05.2018 09:00:00 12,3 9,1 11,6 15,7 8 4 16 9 NE 1020,8 15 60 0,0
20.05.2018 08:00:00 10,0 8,3 5,2 15,8 6 3 10 5 NNE 1020,8 15 60 0,0
20.05.2018 07:00:00 7,7 7,3 2,5 16,1 5 3 7 4 N 1020,7 10 15 0,0
20.05.2018 06:00:00 7,5 6,8 2,6 16,3 3 2 5 3 N 1020,5 9 0 0,0
20.05.2018 05:00:00 8,6 7,2 3,5 16,5 2 1 5 3 NNE 1020,5 18 0 0,0
20.05.2018 04:00:00 9,6 7,7 5,6 16,6 3 2 14 8 N 1020,6 20 0 0,0
20.05.2018 03:00:00 10,3 8,2 6,1 16,8 5 3 11 6 NNE 1020,9 20 0 0,0
20.05.2018 02:00:00 11,3 8,2 8,2 17,0 5 3 16 9 NNE 1021,1 20 0 0,0
20.05.2018 01:00:00 12,3 7,8 9,8 17,2 8 4 14 8 NNE 1020,9 20 0 0,0
20.05.2018 00:00:00 12,7 7,4 7,4 17,4 9 5 13 7 N 1021,0 20 0 0,0
19.05.2018 23:00:00 14,1 6,7 7,8 17,6 5 3 11 6 NNE 1020,5 20 0 0,0
19.05.2018 22:00:00 15,7 6,1 11,5 17,7 7 4 13 7 NNE 1020,1 20 11 0,0
19.05.2018 21:00:00 18,6 5,8 19,0 17,8 9 5 22 12 NNE 1019,8 20 60 0,0
19.05.2018 20:00:00 20,1 4,9 23,3 17,7 14 8 25 14 NNE 1019,5 20 60 0,0
19.05.2018 19:00:00 20,7 5,9 25,5 17,6 14 8 29 15 NNE 1019,3 20 60 0,0
19.05.2018 18:00:00 20,9 5,7 27,3 17,4 14 8 28 15 NNE 1019,7 20 60 0,0
19.05.2018 17:00:00 20,8 6,0 27,4 17,1 16 8 29 16 NNE 1020,2 20 60 0,0
19.05.2018 16:00:00 20,0 6,3 26,5 16,8 16 9 33 18 NNE 1020,8 20 60 0,0
19.05.2018 15:00:00 19,7 3,8 26,6 16,4 14 8 29 16 NNE 1021,3 20 60 0,0
19.05.2018 14:00:00 18,6 5,8 23,9 16,0 14 8 32 17 NE 1021,8 20 60 0,0
19.05.2018 13:00:00 17,9 5,8 24,4 15,7 15 8 27 15 NNE 1022,1 20 60 0,0
19.05.2018 12:00:00 16,9 7,8 23,5 15,6 13 7 24 13 NNE 1022,2 20 60 0,0
19.05.2018 11:00:00 15,5 7,0 21,0 15,5 14 8 22 12 NE 1022,4 20 60 0,0
19.05.2018 10:00:00 13,8 8,4 17,0 15,5 10 5 15 8 NNE 1022,5 20 60 0,0
19.05.2018 09:00:00 11,5 8,2 9,9 15,6 9 5 16 8 NNE 1022,4 19 56 0,0
19.05.2018 08:00:00 9,0 7,1 7,4 15,8 8 4 14 7 NNE 1022,2 18 33 0,0
19.05.2018 07:00:00 8,1 7,0 6,7 15,9 7 4 14 7 NE 1022,0 16 13 0,0
19.05.2018 06:00:00 8,3 7,2 6,9 16,1 8 5 14 8 NNE 1021,7 16 0 0,0
19.05.2018 05:00:00 8,8 7,4 7,3 16,3 7 4 14 8 NNE 1021,6 19 0 0,0
19.05.2018 04:00:00 9,2 7,3 7,0 16,4 7 4 16 9 NNE 1021,7 20 0 0,0
19.05.2018 03:00:00 10,1 7,7 8,3 16,6 8 5 16 8 NNE 1022,1 20 0 0,0
19.05.2018 02:00:00 11,0 7,5 9,6 16,8 10 5 22 12 NNE 1021,9 20 0 0,0
19.05.2018 01:00:00 12,0 7,3 10,0 16,9 13 7 22 12 NE 1022,0 20 0 0,0
19.05.2018 00:00:00 13,4 6,0 9,8 17,1 8 4 17 9 NNE 1022,1 20 0 0,0
18.05.2018 23:00:00 13,8 4,9 9,9 17,3 5 3 10 5 N 1021,7 20 0 0,0
18.05.2018 22:00:00 15,0 4,7 11,5 17,4 7 4 11 6 NNE 1021,3 20 0 0,0
18.05.2018 21:00:00 16,6 5,2 14,9 17,5 9 5 22 12 NNE 1020,9 20 16 0,0
18.05.2018 20:00:00 18,6 5,1 20,6 17,5 16 9 27 15 N 1020,8 20 60 0,0
18.05.2018 19:00:00 19,4 7,5 22,7 17,4 16 8 27 15 N 1020,8 20 60 0,0
18.05.2018 18:00:00 20,0 8,0 26,3 17,2 14 8 26 14 NNE 1020,9 20 60 0,0
18.05.2018 17:00:00 19,9 7,6 26,8 16,8 9 5 27 15 NNE 1021,0 20 60 0,0
18.05.2018 16:00:00 19,7 7,7 26,2 16,5 9 5 28 15 N 1021,2 20 60 0,0
18.05.2018 15:00:00 18,6 7,4 25,3 16,1 16 8 27 15 NNE 1021,7 20 60 0,0
18.05.2018 14:00:00 17,9 7,3 24,6 15,7 15 8 30 16 NNE 1022,3 20 60 0,0
18.05.2018 13:00:00 17,1 8,8 23,6 15,4 11 6 28 15 NNE 1022,6 19 60 0,0
18.05.2018 12:00:00 15,8 8,3 22,3 15,3 15 8 28 15 NNE 1023,1 19 60 0,0
18.05.2018 11:00:00 14,3 8,7 20,2 15,3 10 5 20 11 NNE 1023,1 20 60 0,0
18.05.2018 10:00:00 12,9 7,8 15,5 15,2 9 5 18 10 NE 1023,1 19 60 0,0
18.05.2018 09:00:00 10,9 7,2 12,4 15,4 13 7 19 10 NE 1023,2 19 60 0,0
18.05.2018 08:00:00 9,4 7,0 7,4 15,5 8 5 17 9 NNE 1023,2 19 60 0,0
18.05.2018 07:00:00 8,1 7,2 5,2 15,6 8 4 16 9 NNE 1023,0 18 13 0,0
18.05.2018 06:00:00 8,6 7,2 6,5 15,8 6 3 13 7 NNE 1022,5 19 0 0,0
18.05.2018 05:00:00 9,2 7,5 7,2 16,0 7 4 15 8 NE 1022,4 20 0 0,0
18.05.2018 04:00:00 10,2 8,1 8,8 16,1 9 5 16 8 NE 1022,3 20 0 0,0
18.05.2018 03:00:00 10,8 8,4 9,2 16,3 8 4 18 10 NE 1022,5 20 0 0,0
18.05.2018 02:00:00 11,8 8,5 10,1 16,4 9 5 17 9 NNE 1022,4 20 0 0,0
18.05.2018 01:00:00 12,5 8,6 10,0 16,5 8 5 13 7 NNE 1022,4 20 0 0,0
18.05.2018 00:00:00 13,8 9,0 11,9 16,7 9 5 16 9 NE 1022,2 20 0 0,0
17.05.2018 23:00:00 14,8 9,6 12,0 16,8 9 5 16 8 NE 1022,0 20 0 0,0
17.05.2018 22:00:00 15,8 10,1 11,5 16,9 8 4 13 7 NE 1021,2 20 9 0,0

tt = Température de l'air
td = dewpoint
tt 5cm = Température de l'air 5cm
tt -20cm = Température de l'air -20cm
ff = Vitesse du vent
fx = gusts
dd = Direction du vent
ppp = reduced air pressure
vv = visibility
sd = Ensoleillement
rr = Quantités de précipitations

stations d'obs. à proximité